Voltar ao catálogo

FENGYUN 1C DEB

AtivoPO
NORAD 32177·DEBRIS·🇨🇳 China

Lançado May 10, 1999 de Taiyuan Satellite Launch Center

Loading…

Próximas Passagens (próximas 24 horas)

TLE

EnvelhecendoSource: Space-Track

Época: Sep 11, 2026, 07:47 UTC

1 32177U 99025CTX 26254.32490322  .00002815  00000-0  60217-3 0  9994
2 32177  99.0299 291.9512 0046709 297.6634  61.9826 14.59016725750107

Acompanhe FENGYUN 1C DEB em tempo real com AllMySat

Download on the App Store